Tracking 19854 objects as of 23-Sep-2019
HD Live streaming from Space Station
objects crossing your sky now

FENGYUN 1C DEB

Track FENGYUN 1C DEB now!
10-day predictions


NORAD ID: 32209
Int'l Code: 1999-025CVF
Perigee: 853.6 km
Apogee: 1,374.3 km
Inclination: 99.4 °
Period: 107.4 minutes
Semi major axis: 7484 km
RCS: 0.0093 m2 (small)
Launch date: May 10, 1999
Source: People's Republic of China (PRC)
Launch site: Taiyaun Space Center, China (TSC)

Note: This is SATELLITE DEBRIS
aabbcc
Your satellite tracking list
Your tracking list is empty




NASA's NSSDC Master Catalog

Two Line Element Set (TLE):
1 32209U 99025CVF 19264.15581809  .00000698  00000-0  94592-3 0  9995
2 32209  99.4196 333.4647 0347786 270.9210  85.2096 13.40659067595394
Source of the keplerian elements: AFSPC